Year,Month,Day,Hour,Minute,Value (Times are PST for temperature in C)
2009,10,16,00,00,12.40
2009,10,16,00,01,12.30
2009,10,16,00,02,12.30
2009,10,16,00,03,12.30
2009,10,16,00,04,12.30
2009,10,16,00,05,12.30
2009,10,16,00,06,12.30
2009,10,16,00,07,12.30
2009,10,16,00,08,12.30
2009,10,16,00,09,12.30
2009,10,16,00,10,12.30
2009,10,16,00,11,12.30
2009,10,16,00,12,12.30
2009,10,16,00,13,12.30
2009,10,16,00,14,12.30
2009,10,16,00,15,12.30
2009,10,16,00,16,12.30
2009,10,16,00,17,12.30
2009,10,16,00,18,12.30
2009,10,16,00,19,12.30
2009,10,16,00,20,12.30
2009,10,16,00,21,12.30
2009,10,16,00,22,12.30
2009,10,16,00,23,12.30
2009,10,16,00,24,12.30
2009,10,16,00,25,12.30
2009,10,16,00,26,12.30
2009,10,16,00,27,12.30
2009,10,16,00,28,12.30
2009,10,16,00,29,12.30
2009,10,16,00,30,12.30
2009,10,16,00,31,12.30
2009,10,16,00,32,12.30
2009,10,16,00,33,12.30
2009,10,16,00,34,12.30
2009,10,16,00,35,12.30
2009,10,16,00,36,12.40
2009,10,16,00,37,12.40
2009,10,16,00,38,12.40
2009,10,16,00,39,12.40
2009,10,16,00,40,12.40
2009,10,16,00,41,12.40
2009,10,16,00,42,12.40
2009,10,16,00,43,12.40
2009,10,16,00,44,12.40
2009,10,16,00,45,12.40
2009,10,16,00,46,12.40
2009,10,16,00,47,12.40
2009,10,16,00,48,12.40
2009,10,16,00,49,12.40
2009,10,16,00,50,12.50
2009,10,16,00,51,12.50
2009,10,16,00,52,12.50
2009,10,16,00,53,12.50
2009,10,16,00,54,12.50
2009,10,16,00,55,12.50
2009,10,16,00,56,12.50
2009,10,16,00,57,12.50
2009,10,16,00,58,12.50
2009,10,16,00,59,12.50
2009,10,16,01,00,12.50
2009,10,16,01,01,12.50
2009,10,16,01,02,12.50
2009,10,16,01,03,12.50
2009,10,16,01,04,12.50
2009,10,16,01,05,12.60
2009,10,16,01,06,12.60
2009,10,16,01,07,12.60
2009,10,16,01,08,12.60
2009,10,16,01,09,12.50
2009,10,16,01,10,12.50
2009,10,16,01,11,12.50
2009,10,16,01,12,12.50
2009,10,16,01,13,12.50
2009,10,16,01,14,12.50
2009,10,16,01,15,12.50
2009,10,16,01,16,12.40
2009,10,16,01,17,12.40
2009,10,16,01,18,12.40
2009,10,16,01,19,12.40
2009,10,16,01,20,12.40
2009,10,16,01,21,12.40
2009,10,16,01,22,12.40
2009,10,16,01,23,12.40
2009,10,16,01,24,12.30
2009,10,16,01,25,12.30
2009,10,16,01,26,12.30
2009,10,16,01,27,12.30
2009,10,16,01,28,12.40
2009,10,16,01,29,12.40
2009,10,16,01,30,12.40
2009,10,16,01,31,12.40
2009,10,16,01,32,12.40
2009,10,16,01,33,12.40
2009,10,16,01,34,12.40
2009,10,16,01,35,12.40
2009,10,16,01,36,12.40
2009,10,16,01,37,12.40
2009,10,16,01,38,12.40
2009,10,16,01,39,12.40
2009,10,16,01,40,12.40
2009,10,16,01,41,12.40
2009,10,16,01,42,12.50
2009,10,16,01,43,12.50
2009,10,16,01,44,12.50
2009,10,16,01,45,12.50
2009,10,16,01,46,12.50
2009,10,16,01,47,12.50
2009,10,16,01,48,12.50
2009,10,16,01,49,12.50
2009,10,16,01,50,12.50
2009,10,16,01,51,12.40
2009,10,16,01,52,12.40
2009,10,16,01,53,12.40
2009,10,16,01,54,12.40
2009,10,16,01,55,12.40
2009,10,16,01,56,12.40
2009,10,16,01,57,12.40
2009,10,16,01,58,12.40
2009,10,16,01,59,12.40
2009,10,16,02,00,12.40
2009,10,16,02,01,12.40
2009,10,16,02,02,12.40
2009,10,16,02,03,12.40
2009,10,16,02,04,12.40
2009,10,16,02,05,12.40
2009,10,16,02,06,12.40
2009,10,16,02,07,12.40
2009,10,16,02,08,12.40
2009,10,16,02,09,12.40
2009,10,16,02,10,12.40
2009,10,16,02,11,12.40
2009,10,16,02,12,12.40
2009,10,16,02,13,12.40
2009,10,16,02,14,12.40
2009,10,16,02,15,12.40
2009,10,16,02,16,12.40
2009,10,16,02,17,12.40
2009,10,16,02,18,12.40
2009,10,16,02,19,12.40
2009,10,16,02,20,12.40
2009,10,16,02,21,12.40
2009,10,16,02,22,12.30
2009,10,16,02,23,12.30
2009,10,16,02,24,12.30
2009,10,16,02,25,12.40
2009,10,16,02,26,12.40
2009,10,16,02,27,12.40
2009,10,16,02,28,12.40
2009,10,16,02,29,12.40
2009,10,16,02,30,12.40
2009,10,16,02,31,12.40
2009,10,16,02,32,12.40
2009,10,16,02,33,12.40
2009,10,16,02,34,12.40
2009,10,16,02,35,12.40
2009,10,16,02,36,12.40
2009,10,16,02,37,12.40
2009,10,16,02,38,12.40
2009,10,16,02,39,12.40
2009,10,16,02,40,12.40
2009,10,16,02,41,12.40
2009,10,16,02,42,12.40
2009,10,16,02,43,12.40
2009,10,16,02,44,12.40
2009,10,16,02,45,12.40
2009,10,16,02,46,12.40
2009,10,16,02,47,12.40
2009,10,16,02,48,12.40
2009,10,16,02,49,12.40
2009,10,16,02,50,12.40
2009,10,16,02,51,12.40
2009,10,16,02,52,12.40
2009,10,16,02,53,12.40
2009,10,16,02,54,12.40
2009,10,16,02,55,12.30
2009,10,16,02,56,12.30
2009,10,16,02,57,12.30
2009,10,16,02,58,12.30
2009,10,16,02,59,12.30
2009,10,16,03,00,12.30
2009,10,16,03,01,12.30
2009,10,16,03,02,12.30
2009,10,16,03,03,12.30
2009,10,16,03,04,12.30
2009,10,16,03,05,12.30
2009,10,16,03,06,12.30
2009,10,16,03,07,12.30
2009,10,16,03,08,12.30
2009,10,16,03,09,12.30
2009,10,16,03,10,12.30
2009,10,16,03,11,12.30
2009,10,16,03,12,12.30
2009,10,16,03,13,12.40
2009,10,16,03,14,12.40
2009,10,16,03,15,12.40
2009,10,16,03,16,12.40
2009,10,16,03,17,12.40
2009,10,16,03,18,12.40
2009,10,16,03,19,12.40
2009,10,16,03,20,12.30
2009,10,16,03,21,12.30
2009,10,16,03,22,12.30
2009,10,16,03,23,12.30
2009,10,16,03,24,12.30
2009,10,16,03,25,12.30
2009,10,16,03,26,12.30
2009,10,16,03,27,12.30
2009,10,16,03,28,12.30
2009,10,16,03,29,12.30
2009,10,16,03,30,12.30
2009,10,16,03,31,12.30
2009,10,16,03,32,12.40
2009,10,16,03,33,12.40
2009,10,16,03,34,12.40
2009,10,16,03,35,12.40
2009,10,16,03,36,12.40
2009,10,16,03,37,12.40
2009,10,16,03,38,12.40
2009,10,16,03,39,12.40
2009,10,16,03,40,12.40
2009,10,16,03,41,12.40
2009,10,16,03,42,12.40
2009,10,16,03,43,12.40
2009,10,16,03,44,12.40
2009,10,16,03,45,12.40
2009,10,16,03,46,12.40
2009,10,16,03,47,12.30
2009,10,16,03,48,12.30
2009,10,16,03,49,12.30
2009,10,16,03,50,12.30
2009,10,16,03,51,12.30
2009,10,16,03,52,12.30
2009,10,16,03,53,12.30
2009,10,16,03,54,12.30
2009,10,16,03,55,12.30
2009,10,16,03,56,12.30
2009,10,16,03,57,12.30
2009,10,16,03,58,12.30
2009,10,16,03,59,12.30
2009,10,16,04,00,12.30
2009,10,16,04,01,12.30
2009,10,16,04,02,12.30
2009,10,16,04,03,12.30
2009,10,16,04,04,12.30
2009,10,16,04,05,12.30
2009,10,16,04,06,12.30
2009,10,16,04,07,12.40
2009,10,16,04,08,12.40
2009,10,16,04,09,12.40
2009,10,16,04,10,12.40
2009,10,16,04,11,12.40
2009,10,16,04,12,12.40
2009,10,16,04,13,12.40
2009,10,16,04,14,12.40
2009,10,16,04,15,12.40
2009,10,16,04,16,12.40
2009,10,16,04,17,12.40
2009,10,16,04,18,12.40
2009,10,16,04,19,12.40
2009,10,16,04,20,12.40
2009,10,16,04,21,12.40
2009,10,16,04,22,12.40
2009,10,16,04,23,12.40
2009,10,16,04,24,12.40
2009,10,16,04,25,12.40
2009,10,16,04,26,12.40
2009,10,16,04,27,12.40
2009,10,16,04,28,12.40
2009,10,16,04,29,12.40
2009,10,16,04,30,12.40
2009,10,16,04,31,12.40
2009,10,16,04,32,12.40
2009,10,16,04,33,12.40
2009,10,16,04,34,12.40
2009,10,16,04,35,12.40
2009,10,16,04,36,12.50
2009,10,16,04,37,12.50
2009,10,16,04,38,12.50
2009,10,16,04,39,12.50
2009,10,16,04,40,12.50
2009,10,16,04,41,12.50
2009,10,16,04,42,12.60
2009,10,16,04,43,12.60
2009,10,16,04,44,12.50
2009,10,16,04,45,12.50
2009,10,16,04,46,12.50
2009,10,16,04,47,12.50
2009,10,16,04,48,12.50
2009,10,16,04,49,12.50
2009,10,16,04,50,12.50
2009,10,16,04,51,12.50
2009,10,16,04,52,12.50
2009,10,16,04,53,12.50
2009,10,16,04,54,12.50
2009,10,16,04,55,12.50
2009,10,16,04,56,12.50
2009,10,16,04,57,12.50
2009,10,16,04,58,12.50
2009,10,16,04,59,12.60
2009,10,16,05,00,12.60
2009,10,16,05,01,12.60
2009,10,16,05,02,12.60
2009,10,16,05,03,12.60
2009,10,16,05,04,12.70
2009,10,16,05,05,12.70
2009,10,16,05,06,12.70
2009,10,16,05,07,12.80
2009,10,16,05,08,12.80
2009,10,16,05,09,12.80
2009,10,16,05,10,12.80
2009,10,16,05,11,12.80
2009,10,16,05,12,12.80
2009,10,16,05,13,12.80
2009,10,16,05,14,12.80
2009,10,16,05,15,12.80
2009,10,16,05,16,12.80
2009,10,16,05,17,12.80
2009,10,16,05,18,12.70
2009,10,16,05,19,12.70
2009,10,16,05,20,12.60
2009,10,16,05,21,12.60
2009,10,16,05,22,12.50
2009,10,16,05,23,12.50
2009,10,16,05,24,12.40
2009,10,16,05,25,12.40
2009,10,16,05,26,12.30
2009,10,16,05,27,12.30
2009,10,16,05,28,12.30
2009,10,16,05,29,12.30
2009,10,16,05,30,12.30
2009,10,16,05,31,12.30
2009,10,16,05,32,12.30
2009,10,16,05,33,12.30
2009,10,16,05,34,12.30
2009,10,16,05,35,12.30
2009,10,16,05,36,12.30
2009,10,16,05,37,12.30
2009,10,16,05,38,12.30
2009,10,16,05,39,12.40
2009,10,16,05,40,12.40
2009,10,16,05,41,12.40
2009,10,16,05,42,12.40
2009,10,16,05,43,12.50
2009,10,16,05,44,12.50
2009,10,16,05,45,12.50
2009,10,16,05,46,12.40
2009,10,16,05,47,12.40
2009,10,16,05,48,12.40
2009,10,16,05,49,12.30
2009,10,16,05,50,12.30
2009,10,16,05,51,12.30
2009,10,16,05,52,12.30
2009,10,16,05,53,12.40
2009,10,16,05,54,12.40
2009,10,16,05,55,12.30
2009,10,16,05,56,12.30
2009,10,16,05,57,12.30
2009,10,16,05,58,12.30
2009,10,16,05,59,12.40
2009,10,16,06,00,12.40
2009,10,16,06,01,12.40
2009,10,16,06,02,12.40
2009,10,16,06,03,12.40
2009,10,16,06,04,12.40
2009,10,16,06,05,12.40
2009,10,16,06,06,12.40
2009,10,16,06,07,12.40
2009,10,16,06,08,12.40
2009,10,16,06,09,12.50
2009,10,16,06,10,12.50
2009,10,16,06,11,12.50
2009,10,16,06,12,12.50
2009,10,16,06,13,12.50
2009,10,16,06,14,12.50
2009,10,16,06,15,12.50
2009,10,16,06,16,12.40
2009,10,16,06,17,12.40
2009,10,16,06,18,12.40
2009,10,16,06,19,12.40
2009,10,16,06,20,12.50
2009,10,16,06,21,12.50
2009,10,16,06,22,12.50
2009,10,16,06,23,12.50
2009,10,16,06,24,12.50
2009,10,16,06,25,12.50
2009,10,16,06,26,12.40
2009,10,16,06,27,12.40
2009,10,16,06,28,12.40
2009,10,16,06,29,12.40
2009,10,16,06,30,12.30
2009,10,16,06,31,12.30
2009,10,16,06,32,12.30
2009,10,16,06,33,12.30
2009,10,16,06,34,12.30
2009,10,16,06,35,12.30
2009,10,16,06,36,12.30
2009,10,16,06,37,12.30
2009,10,16,06,38,12.30
2009,10,16,06,39,12.20
2009,10,16,06,40,12.20
2009,10,16,06,41,12.20
2009,10,16,06,42,12.20
2009,10,16,06,43,12.20
2009,10,16,06,44,12.20
2009,10,16,06,45,12.20
2009,10,16,06,46,12.20
2009,10,16,06,47,12.20
2009,10,16,06,48,12.20
2009,10,16,06,49,12.20
2009,10,16,06,50,12.30
2009,10,16,06,51,12.30
2009,10,16,06,52,12.30
2009,10,16,06,53,12.30
2009,10,16,06,54,12.30
2009,10,16,06,55,12.30
2009,10,16,06,56,12.30
2009,10,16,06,57,12.30
2009,10,16,06,58,12.30
2009,10,16,06,59,12.30
2009,10,16,07,00,12.30
2009,10,16,07,01,12.30
2009,10,16,07,02,12.30
2009,10,16,07,03,12.30
2009,10,16,07,04,12.30
2009,10,16,07,05,12.30
2009,10,16,07,06,12.30
2009,10,16,07,07,12.30
2009,10,16,07,08,12.30
2009,10,16,07,09,12.30
2009,10,16,07,10,12.30
2009,10,16,07,11,12.30
2009,10,16,07,12,12.30
2009,10,16,07,13,12.30
2009,10,16,07,14,12.30
2009,10,16,07,15,12.30
2009,10,16,07,16,12.30
2009,10,16,07,17,12.30
2009,10,16,07,18,12.40
2009,10,16,07,19,12.40
2009,10,16,07,20,12.50
2009,10,16,07,21,12.50
2009,10,16,07,22,12.60
2009,10,16,07,23,12.70
2009,10,16,07,24,12.70
2009,10,16,07,25,12.80
2009,10,16,07,26,12.80
2009,10,16,07,27,12.80
2009,10,16,07,28,12.80
2009,10,16,07,29,12.80
2009,10,16,07,30,12.80
2009,10,16,07,31,12.80
2009,10,16,07,32,12.80
2009,10,16,07,33,12.80
2009,10,16,07,34,12.80
2009,10,16,07,35,12.80
2009,10,16,07,36,12.80
2009,10,16,07,37,12.80
2009,10,16,07,38,12.80
2009,10,16,07,39,12.80
2009,10,16,07,40,12.80
2009,10,16,07,41,12.80
2009,10,16,07,42,12.80
2009,10,16,07,43,12.70
2009,10,16,07,44,12.70
2009,10,16,07,45,12.70
2009,10,16,07,46,12.70
2009,10,16,07,47,12.60
2009,10,16,07,48,12.60
2009,10,16,07,49,12.60
2009,10,16,07,50,12.60
2009,10,16,07,51,12.60
2009,10,16,07,52,12.60
2009,10,16,07,53,12.60
2009,10,16,07,54,12.60
2009,10,16,07,55,12.60
2009,10,16,07,56,12.60
2009,10,16,07,57,12.50
2009,10,16,07,58,12.50
2009,10,16,07,59,12.50
2009,10,16,08,00,12.50
2009,10,16,08,01,12.60
2009,10,16,08,02,12.60
2009,10,16,08,03,12.60
2009,10,16,08,04,12.60
2009,10,16,08,05,12.60
2009,10,16,08,06,12.60
2009,10,16,08,07,12.60
2009,10,16,08,08,12.60
2009,10,16,08,09,12.60
2009,10,16,08,10,12.60
2009,10,16,08,11,12.60
2009,10,16,08,12,12.60
2009,10,16,08,13,12.60
2009,10,16,08,14,12.60
2009,10,16,08,15,12.60
2009,10,16,08,16,12.60
2009,10,16,08,17,12.60
2009,10,16,08,18,12.60
2009,10,16,08,19,12.60
2009,10,16,08,20,12.60
2009,10,16,08,21,12.60
2009,10,16,08,22,12.60
2009,10,16,08,23,12.60
2009,10,16,08,24,12.50
2009,10,16,08,25,12.50
2009,10,16,08,26,12.50
2009,10,16,08,27,12.50
2009,10,16,08,28,12.50
2009,10,16,08,29,12.50
2009,10,16,08,30,12.50
2009,10,16,08,31,12.50
2009,10,16,08,32,12.50
2009,10,16,08,33,12.40
2009,10,16,08,34,12.40
2009,10,16,08,35,12.50
2009,10,16,08,36,12.50
2009,10,16,08,37,12.50
2009,10,16,08,38,12.50
2009,10,16,08,39,12.50
2009,10,16,08,40,12.50
2009,10,16,08,41,12.50
2009,10,16,08,42,12.50
2009,10,16,08,43,12.60
2009,10,16,08,44,12.60
2009,10,16,08,45,12.60
2009,10,16,08,46,12.70
2009,10,16,08,47,12.70
2009,10,16,08,48,12.70
2009,10,16,08,49,12.70
2009,10,16,08,50,12.80
2009,10,16,08,51,12.80
2009,10,16,08,52,12.80
2009,10,16,08,53,12.80
2009,10,16,08,54,12.80
2009,10,16,08,55,12.80
2009,10,16,08,56,12.80
2009,10,16,08,57,12.80
2009,10,16,08,58,12.80
2009,10,16,08,59,12.80
2009,10,16,09,00,12.80
2009,10,16,09,01,12.80
2009,10,16,09,02,12.80
2009,10,16,09,03,12.80
2009,10,16,09,04,12.80
2009,10,16,09,05,12.80
2009,10,16,09,06,12.90
2009,10,16,09,07,12.90
2009,10,16,09,08,12.90
2009,10,16,09,09,12.90
2009,10,16,09,10,12.90
2009,10,16,09,11,12.90
2009,10,16,09,12,12.90
2009,10,16,09,13,12.90
2009,10,16,09,14,12.90
2009,10,16,09,15,12.90
2009,10,16,09,16,13.00
2009,10,16,09,17,13.00
2009,10,16,09,18,13.00
2009,10,16,09,19,13.00
2009,10,16,09,20,12.90
2009,10,16,09,21,12.90
2009,10,16,09,22,12.90
2009,10,16,09,23,12.80
2009,10,16,09,24,12.80
2009,10,16,09,25,12.80
2009,10,16,09,26,12.80
2009,10,16,09,27,12.80
2009,10,16,09,28,12.80
2009,10,16,09,29,12.80
2009,10,16,09,30,12.80
2009,10,16,09,31,12.80
2009,10,16,09,32,12.80
2009,10,16,09,33,12.80
2009,10,16,09,34,12.80
2009,10,16,09,35,12.80
2009,10,16,09,36,12.80
2009,10,16,09,37,12.80
2009,10,16,09,38,12.80
2009,10,16,09,39,12.80
2009,10,16,09,40,12.80
2009,10,16,09,41,12.80
2009,10,16,09,42,12.80
2009,10,16,09,43,12.90
2009,10,16,09,44,12.90
2009,10,16,09,45,12.90
2009,10,16,09,46,12.90
2009,10,16,09,47,12.90
2009,10,16,09,48,13.00
2009,10,16,09,49,13.00
2009,10,16,09,50,13.00
2009,10,16,09,51,13.00
2009,10,16,09,52,13.10
2009,10,16,09,53,13.10
2009,10,16,09,54,13.10
2009,10,16,09,55,13.10
2009,10,16,09,56,13.10
2009,10,16,09,57,13.10
2009,10,16,09,58,13.10
2009,10,16,09,59,13.10
2009,10,16,10,00,13.10
2009,10,16,10,01,13.10
2009,10,16,10,02,13.10
2009,10,16,10,03,13.20
2009,10,16,10,04,13.20
2009,10,16,10,05,13.20
2009,10,16,10,06,13.20
2009,10,16,10,07,13.30
2009,10,16,10,08,13.30
2009,10,16,10,09,13.30
2009,10,16,10,10,13.20
2009,10,16,10,11,13.20
2009,10,16,10,12,13.20
2009,10,16,10,13,13.20
2009,10,16,10,14,13.20
2009,10,16,10,15,13.20
2009,10,16,10,16,13.20
2009,10,16,10,17,13.20
2009,10,16,10,18,13.20
2009,10,16,10,19,13.20
2009,10,16,10,20,13.20
2009,10,16,10,21,13.20
2009,10,16,10,22,13.20
2009,10,16,10,23,13.20
2009,10,16,10,24,13.20
2009,10,16,10,25,13.20
2009,10,16,10,26,13.20
2009,10,16,10,27,13.20
2009,10,16,10,28,13.20
2009,10,16,10,29,13.20
2009,10,16,10,30,13.30
2009,10,16,10,31,13.30
2009,10,16,10,32,13.30
2009,10,16,10,33,13.30
2009,10,16,10,34,13.30
2009,10,16,10,35,13.30
2009,10,16,10,36,13.30
2009,10,16,10,37,13.30
2009,10,16,10,38,13.30
2009,10,16,10,39,13.20
2009,10,16,10,40,13.20
2009,10,16,10,41,13.20
2009,10,16,10,42,13.20
2009,10,16,10,43,13.20
2009,10,16,10,44,13.20
2009,10,16,10,45,13.20
2009,10,16,10,46,13.30
2009,10,16,10,47,13.30
2009,10,16,10,48,13.30
2009,10,16,10,49,13.30
2009,10,16,10,50,13.30
2009,10,16,10,51,13.30
2009,10,16,10,52,13.30
2009,10,16,10,53,13.30
2009,10,16,10,54,13.30
2009,10,16,10,55,13.30
2009,10,16,10,56,13.30
2009,10,16,10,57,13.40
2009,10,16,10,58,13.40
2009,10,16,10,59,13.40
2009,10,16,11,00,13.50
2009,10,16,11,01,13.50
2009,10,16,11,02,13.60
2009,10,16,11,03,13.60
2009,10,16,11,04,13.70
2009,10,16,11,05,13.70
2009,10,16,11,06,13.70
2009,10,16,11,07,13.80
2009,10,16,11,08,13.90
2009,10,16,11,09,13.90
2009,10,16,11,10,14.00
2009,10,16,11,11,14.00
2009,10,16,11,12,14.00
2009,10,16,11,13,14.10
2009,10,16,11,14,14.10
2009,10,16,11,15,14.20
2009,10,16,11,16,14.20
2009,10,16,11,17,14.20
2009,10,16,11,18,14.20
2009,10,16,11,19,14.20
2009,10,16,11,20,14.20
2009,10,16,11,21,14.30
2009,10,16,11,22,14.30
2009,10,16,11,23,14.30
2009,10,16,11,24,14.40
2009,10,16,11,25,14.50
2009,10,16,11,26,14.60
2009,10,16,11,27,14.60
2009,10,16,11,28,14.70
2009,10,16,11,29,14.80
2009,10,16,11,30,14.90
2009,10,16,11,31,15.00
2009,10,16,11,32,15.00
2009,10,16,11,33,15.10
2009,10,16,11,34,15.20
2009,10,16,11,35,15.30
2009,10,16,11,36,15.40
2009,10,16,11,37,15.50
2009,10,16,11,38,15.50
2009,10,16,11,39,15.60
2009,10,16,11,40,15.70
2009,10,16,11,41,15.70
2009,10,16,11,42,15.70
2009,10,16,11,43,15.80
2009,10,16,11,44,15.80
2009,10,16,11,45,15.80
2009,10,16,11,46,15.80
2009,10,16,11,47,15.80
2009,10,16,11,48,15.90
2009,10,16,11,49,15.90
2009,10,16,11,50,15.90
2009,10,16,11,51,16.00
2009,10,16,11,52,16.10
2009,10,16,11,53,16.10
2009,10,16,11,54,16.10
2009,10,16,11,55,16.10
2009,10,16,11,56,16.10
2009,10,16,11,57,16.20
2009,10,16,11,58,16.20
2009,10,16,11,59,16.20
2009,10,16,12,00,16.20
2009,10,16,12,01,16.20
2009,10,16,12,02,16.20
2009,10,16,12,03,16.20
2009,10,16,12,04,16.20
2009,10,16,12,05,16.20
2009,10,16,12,06,16.20
2009,10,16,12,07,16.30
2009,10,16,12,08,16.30
2009,10,16,12,09,16.30
2009,10,16,12,10,16.30
2009,10,16,12,11,16.30
2009,10,16,12,12,16.30
2009,10,16,12,13,16.40
2009,10,16,12,14,16.40
2009,10,16,12,15,16.40
2009,10,16,12,16,16.40
2009,10,16,12,17,16.40
2009,10,16,12,18,16.40
2009,10,16,12,19,16.40
2009,10,16,12,20,16.40
2009,10,16,12,21,16.40
2009,10,16,12,22,16.40
2009,10,16,12,23,16.40
2009,10,16,12,24,16.40
2009,10,16,12,25,16.40
2009,10,16,12,26,16.40
2009,10,16,12,27,16.30
2009,10,16,12,28,16.30
2009,10,16,12,29,16.30
2009,10,16,12,30,16.30
2009,10,16,12,31,16.30
2009,10,16,12,32,16.30
2009,10,16,12,33,16.30
2009,10,16,12,34,16.30
2009,10,16,12,35,16.30
2009,10,16,12,36,16.30
2009,10,16,12,37,16.30
2009,10,16,12,38,16.20
2009,10,16,12,39,16.30
2009,10,16,12,40,16.30
2009,10,16,12,41,16.30
2009,10,16,12,42,16.30
2009,10,16,12,43,16.30
2009,10,16,12,44,16.30
2009,10,16,12,45,16.30
2009,10,16,12,46,16.30
2009,10,16,12,47,16.30
2009,10,16,12,48,16.30
2009,10,16,12,49,16.30
2009,10,16,12,50,16.30
2009,10,16,12,51,16.30
2009,10,16,12,52,16.30
2009,10,16,12,53,16.30
2009,10,16,12,54,16.30
2009,10,16,12,55,16.30
2009,10,16,12,56,16.30
2009,10,16,12,57,16.30
2009,10,16,12,58,16.30
2009,10,16,12,59,16.30
2009,10,16,13,00,16.30
2009,10,16,13,01,16.30
2009,10,16,13,02,16.30
2009,10,16,13,03,16.30
2009,10,16,13,04,16.30
2009,10,16,13,05,16.40
2009,10,16,13,06,16.40
2009,10,16,13,07,16.40
2009,10,16,13,08,16.40
2009,10,16,13,09,16.40
2009,10,16,13,10,16.40
2009,10,16,13,11,16.40
2009,10,16,13,12,16.40
2009,10,16,13,13,16.40
2009,10,16,13,14,16.40
2009,10,16,13,15,16.40
2009,10,16,13,16,16.40
2009,10,16,13,17,16.40
2009,10,16,13,18,16.40
2009,10,16,13,19,16.40
2009,10,16,13,20,16.40
2009,10,16,13,21,16.40
2009,10,16,13,22,16.40
2009,10,16,13,23,16.40
2009,10,16,13,24,16.40
2009,10,16,13,25,16.40
2009,10,16,13,26,16.40
2009,10,16,13,27,16.40
2009,10,16,13,28,16.40
2009,10,16,13,29,16.40
2009,10,16,13,30,16.40
2009,10,16,13,31,16.40
2009,10,16,13,32,16.40
2009,10,16,13,33,16.40
2009,10,16,13,34,16.40
2009,10,16,13,35,16.40
2009,10,16,13,36,16.40
2009,10,16,13,37,16.40
2009,10,16,13,38,16.40
2009,10,16,13,39,16.40
2009,10,16,13,40,16.40
2009,10,16,13,41,16.40
2009,10,16,13,42,16.40
2009,10,16,13,43,16.40
2009,10,16,13,44,16.40
2009,10,16,13,45,16.40
2009,10,16,13,46,16.40
2009,10,16,13,47,16.40
2009,10,16,13,48,16.40
2009,10,16,13,49,16.40
2009,10,16,13,50,16.40
2009,10,16,13,51,16.40
2009,10,16,13,52,16.40
2009,10,16,13,53,16.40
2009,10,16,13,54,16.40
2009,10,16,13,55,16.40
2009,10,16,13,56,16.40
2009,10,16,13,57,16.40
2009,10,16,13,58,16.40
2009,10,16,13,59,16.40
2009,10,16,14,00,16.40
2009,10,16,14,01,16.40
2009,10,16,14,02,16.40
2009,10,16,14,03,16.40
2009,10,16,14,04,16.40
2009,10,16,14,05,16.40
2009,10,16,14,06,16.40
2009,10,16,14,07,16.50
2009,10,16,14,08,16.60
2009,10,16,14,09,16.60
2009,10,16,14,10,16.60
2009,10,16,14,11,16.60
2009,10,16,14,12,16.60
2009,10,16,14,13,16.70
2009,10,16,14,14,16.70
2009,10,16,14,15,16.70
2009,10,16,14,16,16.70
2009,10,16,14,17,16.70
2009,10,16,14,18,16.70
2009,10,16,14,19,16.70
2009,10,16,14,20,16.80
2009,10,16,14,21,16.80
2009,10,16,14,22,16.80
2009,10,16,14,23,16.80
2009,10,16,14,24,16.90
2009,10,16,14,25,16.90
2009,10,16,14,26,17.00
2009,10,16,14,27,17.00
2009,10,16,14,28,17.10
2009,10,16,14,29,17.20
2009,10,16,14,30,17.20
2009,10,16,14,31,17.20
2009,10,16,14,32,17.20
2009,10,16,14,33,17.20
2009,10,16,14,34,17.20
2009,10,16,14,35,17.30
2009,10,16,14,36,17.20
2009,10,16,14,37,17.20
2009,10,16,14,38,17.30
2009,10,16,14,39,17.30
2009,10,16,14,40,17.30
2009,10,16,14,41,17.30
2009,10,16,14,42,17.30
2009,10,16,14,43,17.30
2009,10,16,14,44,17.30
2009,10,16,14,45,17.30
2009,10,16,14,46,17.30
2009,10,16,14,47,17.30
2009,10,16,14,48,17.30
2009,10,16,14,49,17.30
2009,10,16,14,50,17.30
2009,10,16,14,51,17.30
2009,10,16,14,52,17.30
2009,10,16,14,53,17.30
2009,10,16,14,54,17.30
2009,10,16,14,55,17.30
2009,10,16,14,56,17.30
2009,10,16,14,57,17.30
2009,10,16,14,58,17.30
2009,10,16,14,59,17.30
2009,10,16,15,00,17.30
2009,10,16,15,01,17.30
2009,10,16,15,02,17.30
2009,10,16,15,03,17.30
2009,10,16,15,04,17.30
2009,10,16,15,05,17.30
2009,10,16,15,06,17.30
2009,10,16,15,07,17.30
2009,10,16,15,08,17.30
2009,10,16,15,09,17.30
2009,10,16,15,10,17.40
2009,10,16,15,11,17.40
2009,10,16,15,12,17.40
2009,10,16,15,13,17.50
2009,10,16,15,14,17.50
2009,10,16,15,15,17.50
2009,10,16,15,16,17.60
2009,10,16,15,17,17.50
2009,10,16,15,18,17.50
2009,10,16,15,19,17.50
2009,10,16,15,20,17.50
2009,10,16,15,21,17.50
2009,10,16,15,22,17.50
2009,10,16,15,23,17.50
2009,10,16,15,24,17.50
2009,10,16,15,25,17.50
2009,10,16,15,26,17.50
2009,10,16,15,27,17.50
2009,10,16,15,28,17.50
2009,10,16,15,29,17.60
2009,10,16,15,30,17.60
2009,10,16,15,31,17.50
2009,10,16,15,32,17.50
2009,10,16,15,33,17.50
2009,10,16,15,34,17.50
2009,10,16,15,35,17.60
2009,10,16,15,36,17.50
2009,10,16,15,37,17.50
2009,10,16,15,38,17.50
2009,10,16,15,39,17.50
2009,10,16,15,40,17.50
2009,10,16,15,41,17.50
2009,10,16,15,42,17.40
2009,10,16,15,43,17.40
2009,10,16,15,44,17.40
2009,10,16,15,45,17.40
2009,10,16,15,46,17.40
2009,10,16,15,47,17.30
2009,10,16,15,48,17.30
2009,10,16,15,49,17.30
2009,10,16,15,50,17.30
2009,10,16,15,51,17.30
2009,10,16,15,52,17.30
2009,10,16,15,53,17.30
2009,10,16,15,54,17.30
2009,10,16,15,55,17.30
2009,10,16,15,56,17.30
2009,10,16,15,57,17.30
2009,10,16,15,58,17.30
2009,10,16,15,59,17.30
2009,10,16,16,00,17.30
2009,10,16,16,01,17.30
2009,10,16,16,02,17.30
2009,10,16,16,03,17.30
2009,10,16,16,04,17.30
2009,10,16,16,05,17.30
2009,10,16,16,06,17.30
2009,10,16,16,07,17.30
2009,10,16,16,08,17.30
2009,10,16,16,09,17.30
2009,10,16,16,10,17.30
2009,10,16,16,11,17.30
2009,10,16,16,12,17.30
2009,10,16,16,13,17.30
2009,10,16,16,14,17.30
2009,10,16,16,15,17.30
2009,10,16,16,16,17.30
2009,10,16,16,17,17.30
2009,10,16,16,18,17.30
2009,10,16,16,19,17.30
2009,10,16,16,20,17.30
2009,10,16,16,21,17.30
2009,10,16,16,22,17.40
2009,10,16,16,23,17.40
2009,10,16,16,24,17.40
2009,10,16,16,25,17.40
2009,10,16,16,26,17.40
2009,10,16,16,27,17.40
2009,10,16,16,28,17.50
2009,10,16,16,29,17.50
2009,10,16,16,30,17.50
2009,10,16,16,31,17.60
2009,10,16,16,32,17.60
2009,10,16,16,33,17.60
2009,10,16,16,34,17.70
2009,10,16,16,35,17.70
2009,10,16,16,36,17.70
2009,10,16,16,37,17.80
2009,10,16,16,38,17.80
2009,10,16,16,39,17.80
2009,10,16,16,40,17.90
2009,10,16,16,41,17.90
2009,10,16,16,42,17.90
2009,10,16,16,43,17.90
2009,10,16,16,44,17.90
2009,10,16,16,45,17.80
2009,10,16,16,46,17.80
2009,10,16,16,47,17.80
2009,10,16,16,48,17.80
2009,10,16,16,49,17.70
2009,10,16,16,50,17.70
2009,10,16,16,51,17.60
2009,10,16,16,52,17.60
2009,10,16,16,53,17.50
2009,10,16,16,54,17.50
2009,10,16,16,55,17.30
2009,10,16,16,56,17.30
2009,10,16,16,57,17.30
2009,10,16,16,58,17.30
2009,10,16,16,59,17.30
2009,10,16,17,00,17.30
2009,10,16,17,01,17.30
2009,10,16,17,02,17.30
2009,10,16,17,03,17.30
2009,10,16,17,04,17.30
2009,10,16,17,05,17.30
2009,10,16,17,06,17.30
2009,10,16,17,07,17.30
2009,10,16,17,08,17.30
2009,10,16,17,09,17.30
2009,10,16,17,10,17.30
2009,10,16,17,11,17.30
2009,10,16,17,12,17.30
2009,10,16,17,13,17.30
2009,10,16,17,14,17.30
2009,10,16,17,15,17.20
2009,10,16,17,16,17.00
2009,10,16,17,17,16.90
2009,10,16,17,18,16.80
2009,10,16,17,19,16.70